sat.trackr.live / text

‹ back to catalog

GSAT0222 (GALILEO 26)

NORAD 43565 · 2018-060B

PAYLOAD ACTIVE UNKNOWN

§ Identity

Operator
Country
ESA
Launch date
2018-07-25
Launch site
FRGUI
Launch vehicle
Mass (kg)
RCS (m²)

Purposes: earth_obs, nav

External: N2YO · Heavens-Above · Gunter

§ Orbital elements

Epoch: 2026-05-21T21:19:12.238176Z

Period
844.70 min
Inclination
57.1815°
Eccentricity
0.0001850
Mean motion
1.70475538 rev/d
Perigee alt
23,216.5 km
Apogee alt
23,227.5 km
Semi-major
29,600.1 km
B*
0.0000e+0
RAAN
342.4938°
Arg perigee
271.2445°
Mean anomaly
88.7537°
Rev number
4,876

§ Raw data

GSAT0222 (GALILEO 26)1 43565U 18060B   26141.88833609 -.00000086  00000+0  00000+0 0  99902 43565  57.1815 342.4938 0001850 271.2445  88.7537  1.70475538 48767

JSON: /api/v1/satellites/43565 · /tle

For live sub-satellite position, see the globe view (requires WebGL).

§ Visibility from observer

Set your observer location to see the next 7 days of passes ≥ 10°. The values pass through the URL so the page stays shareable.

No JS? Fill the form by hand. The geolocation button needs JavaScript.